This demonstration page uses our WeatherBlox Daily Observations layout. Learn more.

Left ArrowRight Arrow

Hourly Observations for October 31, 2021

Temp ( °F °C ) Dew Point ( °F °C ) Humidity (%) Winds ( mph kmh ) Pressure ( in mb ) Visibility ( mi km ) Precip ( " mm )
12:15 am 00:15 Partly Cloudy 52 11 52 11 100 100 Calm 29.59 1002 10 16 0.00 0.00
12:35 am 00:35 Clear 52 11 52 11 100 100 Calm 29.58 1002 10 16 0.00 0.00
12:55 am 00:55 Clear 50 10 50 10 100 100 Calm 29.58 1002 10 16 0.00 0.00
1:15 am 01:15 Partly Cloudy with Mist and Fog 50 10 50 10 100 100 W 7 11 29.58 1002 5 8 0.00 0.00
1:35 am 01:35 Cloudy 52 11 52 11 100 100 WNW 3 6 29.58 1002 10 16 0.00 0.00
1:55 am 01:55 Cloudy 52 11 52 11 100 100 WSW 5 7 29.58 1002 10 16 0.00 0.00
2:15 am 02:15 Cloudy 54 12 54 12 100 100 W 6 9 29.57 1001 10 16 0.00 0.00
2:35 am 02:35 Mostly Cloudy 52 11 52 11 100 100 W 3 6 29.58 1002 10 16 0.00 0.00
2:55 am 02:55 Cloudy 54 12 54 12 100 100 WNW 5 7 29.59 1002 10 16 0.00 0.00
3:15 am 03:15 Cloudy 54 12 54 12 100 100 SW 3 6 29.59 1002 10 16 0.00 0.00
3:35 am 03:35 Cloudy 54 12 54 12 100 100 W 3 6 29.59 1002 10 16 0.00 0.00
3:55 am 03:55 Cloudy 54 12 54 12 100 100 SSW 3 6 29.60 1002 10 16 0.00 0.00
4:15 am 04:15 Cloudy 54 12 54 12 100 100 Calm 29.60 1002 10 16 0.00 0.00
4:35 am 04:35 Mostly Cloudy 52 11 52 11 100 100 WSW 3 6 29.60 1003 10 16 0.00 0.00
4:55 am 04:55 Partly Cloudy 52 11 52 11 100 100 WSW 3 6 29.60 1003 10 16 0.00 0.00
5:15 am 05:15 Clear 52 11 52 11 100 100 SW 5 7 29.61 1003 10 16 0.00 0.00
5:35 am 05:35 Clear 52 11 52 11 100 100 SSW 3 6 29.62 1003 10 16 0.00 0.00
5:55 am 05:55 Clear 52 11 52 11 100 100 Calm 29.62 1003 7 11 0.00 0.00
6:15 am 06:15 Clear 52 11 52 11 100 100 Calm 29.63 1004 7 11 0.00 0.00
6:35 am 06:35 Mostly Cloudy 52 11 52 11 100 100 Calm 29.64 1004 10 16 0.00 0.00
6:55 am 06:55 Cloudy 52 11 52 11 100 100 S 5 7 29.64 1004 10 16 0.00 0.00
7:15 am 07:15 Cloudy 52 11 52 11 100 100 SW 3 6 29.64 1004 10 16 0.00 0.00
7:35 am 07:35 Cloudy 52 11 52 11 100 100 SSW 3 6 29.65 1004 10 16 0.00 0.00
7:55 am 07:55 Mostly Cloudy 50 10 50 10 100 100 SSW 3 6 29.66 1004 10 16 0.00 0.00
8:15 am 08:15 Mostly Cloudy 50 10 50 10 100 100 Calm 29.67 1005 10 16 0.00 0.00
8:35 am 08:35 Mostly Cloudy 50 10 50 10 100 100 Calm 29.68 1005 10 16 0.00 0.00
8:55 am 08:55 Mostly Cloudy 52 11 52 11 100 100 WSW 3 6 29.68 1005 10 16 0.00 0.00
9:15 am 09:15 Cloudy 52 11 52 11 100 100 Calm 29.68 1005 10 16 0.00 0.00
9:35 am 09:35 Cloudy 54 12 54 12 100 100 Calm 29.69 1006 10 16 0.00 0.00
9:55 am 09:55 Cloudy 54 12 54 12 100 100 Calm 29.69 1006 10 16 0.00 0.00
10:15 am 10:15 Cloudy 57 14 54 12 88 88 W 5 7 29.70 1006 10 16 0.00 0.00
10:35 am 10:35 Cloudy 59 15 55 13 88 88 W 9 15 29.70 1006 10 16 0.00 0.00
10:55 am 10:55 Partly Cloudy 61 16 55 13 83 83 W 9 15 29.71 1006 10 16 0.00 0.00
11:15 am 11:15 Partly Cloudy 63 17 55 13 77 77 W 7 11 29.71 1006 10 16 0.00 0.00
11:35 am 11:35 Mostly Cloudy 63 17 55 13 77 77 W 13 20 29.71 1006 10 16 0.00 0.00
11:55 am 11:55 Partly Cloudy 63 17 55 13 77 77 WNW 13 20 29.71 1006 10 16 0.00 0.00
12:15 pm 12:15 Mostly Cloudy with Rain 63 17 54 12 73 73 WNW 10 17 29.72 1006 10 16 0.00 0.00
12:35 pm 12:35 Cloudy 61 16 55 13 83 83 NW 12 19 29.72 1006 10 16 0.00 0.00
12:55 pm 12:55 Cloudy with Light Rain 61 16 54 12 77 77 NW 14 22 29.72 1006 10 16 0.00 0.00
1:15 pm 13:15 Cloudy 64 18 54 12 68 68 NNW 13 20 29.71 1006 10 16 0.00 0.00
1:35 pm 13:35 Mostly Cloudy 63 17 54 12 73 73 NW 18 30 29.73 1007 10 16 0.00 0.00
1:55 pm 13:55 Partly Cloudy 63 17 52 11 68 68 NW 16 26 29.73 1007 10 16 0.00 0.00
2:15 pm 14:15 Mostly Cloudy 63 17 52 11 68 68 NNW 15 24 29.74 1007 10 16 0.00 0.00
2:35 pm 14:35 Cloudy 64 18 52 11 64 64 NW 16 26 29.73 1007 10 16 0.00 0.00
2:55 pm 14:55 Mostly Cloudy 64 18 50 10 60 60 NW 23 37 29.74 1007 10 16 0.00 0.00
3:15 pm 15:15 Partly Cloudy 64 18 52 11 64 64 NW 16 26 29.75 1008 10 16 0.00 0.00
3:35 pm 15:35 Partly Cloudy 64 18 52 11 64 64 WNW 16 26 29.75 1008 10 16 0.00 0.00
3:55 pm 15:55 Mostly Cloudy 63 17 52 11 68 68 NW 18 30 29.78 1008 10 16 0.00 0.00
4:15 pm 16:15 Mostly Cloudy 63 17 52 11 68 68 NW 7 11 29.79 1009 10 16 0.00 0.00
4:35 pm 16:35 Partly Cloudy 61 16 50 10 68 68 NW 16 26 29.80 1009 10 16 0.00 0.00
4:55 pm 16:55 Mostly Cloudy 61 16 50 10 68 68 NW 17 28 29.82 1010 10 16 0.00 0.00
5:15 pm 17:15 Cloudy 61 16 52 11 72 72 NW 17 28 29.83 1010 10 16 0.00 0.00
5:35 pm 17:35 Mostly Cloudy 61 16 50 10 68 68 NW 24 39 29.84 1010 10 16 0.00 0.00
5:55 pm 17:55 Cloudy 59 15 50 10 72 72 NW 17 28 29.85 1011 10 16 0.00 0.00
6:15 pm 18:15 Cloudy 59 15 50 10 72 72 NW 10 17 29.86 1011 10 16 0.00 0.00
6:35 pm 18:35 Cloudy 59 15 50 10 72 72 WNW 12 19 29.87 1011 10 16 0.00 0.00
6:55 pm 18:55 Mostly Cloudy 59 15 50 10 72 72 WNW 7 11 29.88 1012 10 16 0.00 0.00
7:15 pm 19:15 Mostly Cloudy 57 14 50 10 77 77 W 6 9 29.89 1012 10 16 0.00 0.00
7:35 pm 19:35 Cloudy 57 14 50 10 77 77 WNW 8 13 29.90 1013 10 16 0.00 0.00
7:55 pm 19:55 Mostly Cloudy 57 14 48 9 72 72 NW 12 19 29.90 1013 10 16 0.00 0.00
8:15 pm 20:15 Clear 55 13 48 9 77 77 WNW 12 19 29.90 1013 10 16 0.00 0.00
8:35 pm 20:35 Clear 57 14 48 9 72 72 WNW 15 24 29.91 1013 10 16 0.00 0.00
8:55 pm 20:55 Clear 55 13 48 9 77 77 NW 10 17 29.92 1013 10 16 0.00 0.00
9:15 pm 21:15 Clear 55 13 46 8 72 72 WNW 10 17 29.92 1013 10 16 0.00 0.00
9:35 pm 21:35 Clear 55 13 46 8 72 72 WNW 9 15 29.93 1014 10 16 0.00 0.00
9:55 pm 21:55 Clear 55 13 46 8 72 72 WNW 9 15 29.93 1014 10 16 0.00 0.00
10:15 pm 22:15 Clear 55 13 46 8 72 72 WNW 16 26 29.95 1014 10 16 0.00 0.00
10:35 pm 22:35 Clear 55 13 46 8 72 72 WNW 16 26 29.95 1014 10 16 0.00 0.00
10:55 pm 22:55 Clear 57 14 45 7 63 63 WNW 23 37 29.95 1014 10 16 0.00 0.00
11:15 pm 23:15 Clear 55 13 45 7 67 67 WNW 22 35 29.95 1014 10 16 0.00 0.00
11:35 pm 23:35 Clear 57 14 45 7 63 63 WNW 20 31 29.95 1014 10 16 0.00 0.00
11:55 pm 23:55 Clear 57 14 45 7 63 63 WNW 12 19 29.97 1015 10 16 0.00 0.00

Powered by AerisWeather